Regional Weather Roundup
Issued by NWS Northern Indiana

Home | Current Version | Previous Version | Text Only | Print | Product List | Glossary Off
Versions: 1 2 3 4 5 6 7 8 9 10 11 12 13 14 15 16 17 18 19 20 21 22 23 24 25 26 27 28 29 30 31 32 33 34 35 36 37 38 39 40 41 42 43 44 45 46 47 48 49 50

000
ASUS43 KIWX 271910
RWRIWX

KIWX WEATHER ROUNDUP
NATIONAL WEATHER SERVICE NORTHERN INDIANA
300 PM EDT WED MAY 27 2015

NOTE: "FAIR" INDICATES FEW OR NO CLOUDS BELOW 12,000 FEET WITH NO
SIGNIFICANT WEATHER AND/OR OBSTRUCTIONS TO VISIBILITY.

* THESE STATIONS ARE NOT UNDER NWS QUALITY CONTROL. THEY ALSO MAY NOT
  REPORT WEATHER SUCH AS PRECIPITATION OR FOG.

INZ001>027-272000-
NORTHERN INDIANA

CITY           SKY/WX    TMP DP  RH WIND       PRES   REMARKS
GARY*          PTSUNNY   75  59  57 W24G36    30.00R
VALPARAISO     PTSUNNY   77  55  46 W21G30    30.00R
MICHIGAN CITY* PTSUNNY   70  54  56 NW10G23   30.01R
LAPORTE*       PTSUNNY   75  57  52 W13G21    30.00R
KNOX*          CLOUDY    68  64  88 SW12      30.00S
SOUTH BEND     CLOUDY    75  59  57 W17G23    30.00R
ELKHART*       CLOUDY    68  66  94 SW9       30.00R
GOSHEN         LGT RAIN  66  62  87 W14       30.01R
MONTICELLO*    CLOUDY    74  67  78 W16       30.00F
LOGANSPORT*    CLOUDY    72  66  83 W9G16     30.02F
ROCHESTER*     CLOUDY    72  68  88 W9        30.02R
WARSAW*        LGT RAIN  68  66  94 SW8       30.02R
ANGOLA*        MOSUNNY   70  61  73 SW8       30.00R
FORT WAYNE     LGT RAIN  69  64  84 W12G23    30.01S
HUNTINGTON*    PTSUNNY   70  66  86 W7        30.00F
PERU/GRISSOM   MOSUNNY   76  65  68 W17       30.00S
MARION*        CLOUDY    80  57  45 W22G30    30.01F

$$
INZ028>050-272000-
CENTRAL INDIANA

CITY           SKY/WX    TMP DP  RH WIND       PRES   REMARKS
LAFAYETTE      CLOUDY    76  63  64 W10G23    30.00S
KOKOMO*        CLOUDY    81  63  54 W20       30.01S
MUNCIE*        PTSUNNY   82  60  47 SW17G32   30.01F
INDIANAPOLIS   CLOUDY    80  62  54 SW14      30.03F

$$
MIZ043>046-050>051-056>058-064>065-071>073-077>080-272000-
SOUTHWEST LOWER MICHIGAN

CITY           SKY/WX    TMP DP  RH WIND       PRES   REMARKS
BATTLE CREEK   PTSUNNY   70  64  81 W9        29.97R
BENTON HARBOR  PTSUNNY   68  59  73 W10       29.99R
COLDWATER*     CLOUDY    71  60  69 SW14G21   29.99R
HILLSDALE*     CLOUDY    73  63  70 SW10G17   30.00R
HOLLAND        CLOUDY    65  59  81 SW8       29.97S
GRAND RAPIDS   PTSUNNY   72  58  61 W21G32    29.96R
KALAMAZOO      PTSUNNY   73  56  54 W20G26    29.97R
STURGIS*       LGT RAIN  64  61  88 SW10      30.00R
THREE RIVERS*  PTSUNNY   70  62  77 SW6       30.00R

$$
OHZ001>008-015>018-024>025-272000-
NORTHWEST OHIO

CITY           SKY/WX    TMP DP  RH WIND       PRES   REMARKS
WAUSEON*       PTSUNNY   68  63  83 SW25G33   30.01R
DEFIANCE       LGT RAIN  67  63  87 NW9       30.01F
FINDLAY        MOSUNNY   82  64  54 S23G31    29.99F
TOLEDO EXPRESS TSTM      73  65  75 W20       30.00R
TOLEDO METCALF CLOUDY    75  60  59 SW12      29.99S
LIMA           MOSUNNY   80  63  55 S18G25    30.02F

$$
AND FOR LAKE MICHIGAN COASTAL AND OPEN LAKE BUOY OBSERVATIONS

STATION/POSITION TEMP    WIND        PRES    VSBY  WAVE
                 AIR SEA DIR/SP/G                  HT/PER
                 (F)     (DEG/KT/KT) (MB)    (MI)  (FT/S)
CALUMET HARBOR    72     260/  5/ 16   N/A
MICHIGAN CITY     61     250/ 17/ 20   N/A
BURNS HARBOR      63     300/ 16/ 22 1016.3R
SAINT JOSEPH      63     220/  4/  6 1016.6R
SOUTH LAKE BUOY   47 38  280/  8/ 10 1015.7R         1/ 3
4 MI NW BRIDGMAN  56 56  310/  8/  8   N/A           1/ 3
MICHIGAN CITY     58 52  290/  8/ 12   N/A           1/ 3

$$
&&



USA.gov is the U.S. government's official web portal to all federal, state and local government web resources and services.